Location: Bailleul
(50.3375°N, 2.8513°E)
Time: 05:33:28
(UTC+00:00)

Cosmos 2016 Rocket - Pass Details

Date: 23 October 2021
Orbit: 946 x 1001 km, 83.0° (Epoch: 26 November)

Event Time Altitude Azimuth Distance (km) Brightness Sun altitude
Exits shadow 22:29:01 10° 314° (NW) 2,665 6.7 -49.2°
Drops below altitude 10° 22:29:43 10° 321° (NW) 2,697 6.8 -49.3°
Sets 22:35:01 0° 359° (N) 3,638 7.6 -49.6°
